星链-4046 (STARLINK-4046 )

导读

STARLINK-4046是美国太空探索技术公司 SpaceX 星链计划中的卫星,于2022年6月17日发射升空,属于星链低轨互联网星座的组网卫星之一。它运行在近地轨道,旨在为全球提供高速低延迟宽带互联网服务,补充星链网络覆盖,支撑星座的全球服务能力,是星链大规模组网部署中的一环。

基本信息
目录编号:
52842
目录名称:
STARLINK-4046
国际标识:
2022-062N
轨道中心:
EARTH
卫星名称:
星链-4046
卫星全名:
星链-4046 (STARLINK-4046 )
卫星状态:
在轨 (已飞行1461 天)
发射日期:
2022-06-17 UTC
国别 :
美国 (US)
星等 :
--
轨道信息
数据来源 国际轨道数据 AOE轨道数据
星历时间 2026-06-16T21:45:01+0800
23小时前
查看轨道信息
2026-06-13T07:00:00+0800
4天前
查看轨道信息
半长轴 6917.907km 6917.902km
偏心率 0.0001119 0.0001089
轨道倾角 53.160° 53.161°
近地点辐角 84.145° 57.700°
升交点赤经 310.046° 326.295°
平近点角 275.966° 97.932°
近地点 538.995km 539.011km
远地点 540.545km 540.519km
周期 95.438分钟 95.438分钟
每日圈数 15.088314 15.08833
详细信息
固有亮度:
5
最大亮度:
2.5
卫星平台:
Starlink v1.5
覆盖范围:
全球
运营商:
太空探索技术公司
运营商所在国:
美国
制造商(研发单位):
太空探索技术公司
制造商所在国:
美国
使用方式:
暂无
卫星简介
星链(Starlink)计划是由太空探索技术公司(SpaceX)提出的一个巨型低轨卫星互联网星座项目,计划在2019年至2024年间在太空搭建由约1.2万颗卫星组成的“星链”网络,其中1584颗将部署在地球上空550千米处的近地轨道,并从2020年开始工作。该卫星仍在工作。
2D轨道图
3D轨道图
轨道高度分析图
轨道倾角分析图
轨道综合分析图
查看轨道综合分析图